Location: Newark
(54.6833°N, 25.2833°E)
Time: 13:56:16
(UTC+00:00)

Altair - Pass Details

Date: 18 November 2019
Orbit: 1502 x 1682 km, 47.2° (Epoch: 09 December)

Event Time Altitude Azimuth Distance (km) Brightness Sun altitude
Rises 00:24:48 0° 194° (SSW) 4,639 - -45.5°
Reaches altitude 10° 00:28:44 10° 180° (S) 3,650 - -45.1°
Maximum altitude 00:35:03 21° 135° (SE) 2,864 - -44.3°
Exits shadow 00:35:56 21° 128° (SE) 2,883 9.0 -44.2°
Drops below altitude 10° 00:41:24 10° 91° (E) 3,671 9.9 -43.6°
Sets 00:45:21 0° 77° (ENE) 4,672 10.8 -43.1°
